SCP
0 0 1 1 1 1 1 1 1 1 1 1 1 1 1 1 1 1 0 0 0 0 0 0 0 0 0 0 0 0 0 0 0 0 0 0 0 0 0 0 0 0 0
0 0 1 1 1 1 1 1 1 1 1 1 1 1 1 1 1 1 1 0 0 0 0 0 0 0 0 0 0 0 0 0 0 0 0 0 0 0 0 0 0 0 0
0 0 1 1 1 1 1 1 1 1 1 1 1 1 1 1 1 1 1 0 0 0 0 0 0 0 0 0 0 0 0 0 0 0 0 0 0 0 0 0 0 0 0
0 0 1 1 1 1 1 1 1 1 1 1 1 1 1 1 1 1 1 0 0 0 0 0 0 0 0 0 0 0 0 0 0 0 0 0 0 0 0 0 0 0 0
0 1 1 1 1 1 1 1 1 1 1 1 1 1 1 1 1 1 1 0 0 0 0 0 0 0 0 0 0 0 0 0 0 0 0 0 0 0 0 0 0 0 0
1 1 1 1 1 1 1 1 1 1 1 1 1 1 1 1 1 1 1 1 0 0 0 0 0 0 0 0 0 0 0 0 0 0 0 0 0 0 0 0 0 0 0
1 1 1 1 1 1 1 1 1 1 1 1 1 1 1 1 1 1 1 1 0 0 0 0 0 0 0 0 0 0 0 0 0 0 0 0 0 0 0 0 0 0 0
1 1 1 1 1 1 2 2 1 1 1 1 1 1 1 1 1 1 1 1 0 0 0 0 0 0 0 0 0 0 0 0 0 0 0 0 0 0 0 0 0 0 0
1 1 1 1 1 1 2 2 2 1 1 1 1 1 1 1 1 1 1 1 0 0 0 0 0 0 0 0 0 0 0 0 0 0 0 0 0 0 0 0 0 0 0
1 1 1 1 1 1 1 1 1 1 1 1 1 1 1 1 1 1 1 0 0 0 0 0 0 0 0 0 0 0 0 0 0 0 0 0 0 0 0 0 0 0 0
1 1 1 1 1 1 1 1 1 1 1 1 1 1 1 1 0 0 0 0 0 0 0 0 0 0 0 0 0 0 0 0 0 0 0 0 0 0 0 0 0 0 0
1 1 1 1 1 1 1 1 1 1 1 1 1 1 0 0 0 0 0 0 0 0 0 0 0 0 0 0 0 0 0 0 0 0 0 0 0 0 0 0 0 0 0
1 1 1 1 1 1 1 1 1 1 1 1 0 0 0 0 0 0 0 0 0 0 0 0 0 0 0 0 0 0 0 0 0 0 0 0 0 0 0 0 0 0 0
1 1 1 1 1 1 1 1 1 1 1 1 0 0 0 0 0 0 0 0 0 0 0 0 0 0 0 0 0 0 0 0 0 0 0 0 0 0 0 0 0 0 0
1 1 1 1 1 1 1 1 1 0 0 0 0 0 0 0 0 0 0 0 0 0 0 0 0 0 0 0 0 0 0 0 0 0 0 0 0 0 0 0 0 0 0
1 1 1 1 1 1 1 1 0 0 0 0 0 0 0 0 0 0 0 0 0 0 0 0 0 0 0 0 0 0 0 0 0 0 0 0 0 0 0 0 0 0 0
0 1 1 1 1 1 1 0 0 0 0 0 0 0 0 0 0 0 0 0 0 0 0 0 0 0 0 0 0 0 0 0 0 0 0 0 0 0 0 0 0 0 0
0 0 1 1 1 1 0 0 0 0 0 0 0 0 0 0 0 0 0 0 0 0 0 0 0 0 0 0 0 0 0 0 0 0 0 0 0 0 0 0 0 0 0
0 0 0 1 1 1 0 0 0 0 0 0 0 0 0 0 0 0 0 0 0 0 0 0 0 0 0 0 0 0 0 0 0 0 0 0 0 0 0 0 0 0 0
0 0 0 0 0 0 0 0 0 0 0 0 0 0 0 0 0 0 0 0 0 0 0 0 0 0 0 0 0 0 0 0 0 0 0 0 0 0 0 0 0 0 0
0 0 0 0 0 0 0 0 0 0 0 0 0 0 0 0 0 0 0 0 0 0 0 0 0 0 0 0 0 0 0 0 0 0 0 0 0 0 0 0 0 0 0
0 0 0 0 0 0 0 0 0 0 0 0 0 0 0 0 0 0 0 0 0 0 0 0 0 0 0 0 0 0 0 0 0 0 0 0 0 0 0 0 0 0 0
0 0 0 0 0 0 0 0 0 0 0 0 0 0 0 0 0 0 0 0 0 0 0 0 0 0 0 0 0 0 0 0 0 0 0 0 0 0 0 0 0 0 0
0 0 0 0 0 0 0 0 0 0 0 0 0 0 0 0 0 0 0 0 0 0 0 0 0 0 0 0 0 0 0 0 0 0 0 0 0 0 0 0 0 0 0
0 0 0 0 0 0 0 0 0 0 0 0 0 0 0 0 0 0 0 0 0 0 0 0 0 0 0 0 0 0 0 0 0 0 0 0 0 0 0 0 0 0 0
0 0 0 0 0 0 0 0 0 0 0 0 0 0 0 0 0 0 0 0 0 0 0 0 0 0 0 0 0 0 0 0 0 0 0 0 0 0 0 0 0 0 0
Wind_Speed
5 9 17 18 19 19 19 19 19 18 17 17 18 18 18 18 19 18 18 17 17 16 16 16 16 16 16 16 16 15 15 15 15 14 14 14 14 14 14 13 12 8 15
10 12 17 18 19 19 19 19 18 18 17 17 18 18 18 18 18 18 17 17 17 16 16 16 15 15 16 15 15 15 15 15 15 14 13 11 13 14 14 13 13 9 14
11 13 16 18 18 18 18 18 18 18 18 17 17 18 18 18 18 18 17 17 17 16 16 16 15 15 15 15 15 14 14 14 14 13 11 5 7 13 13 13 13 14 14
11 11 13 16 17 18 18 18 19 19 18 18 17 17 17 17 17 17 17 17 17 16 16 16 15 15 15 14 14 14 13 13 13 12 5 4 4 11 13 13 14 14 13
10 10 12 16 17 17 18 18 18 19 19 19 18 17 17 17 17 17 17 17 17 16 16 16 15 15 14 14 14 13 13 13 13 9 4 4 3 10 13 13 13 13 13
8 9 11 16 17 17 17 17 17 18 19 19 19 18 18 17 17 17 17 17 17 16 16 16 15 14 14 14 13 13 13 13 11 5 4 3 3 10 12 12 12 12 12
7 7 10 15 17 17 16 17 17 17 18 19 19 19 18 18 17 17 17 17 17 17 16 16 15 14 13 13 12 13 13 13 7 5 4 3 4 11 11 11 11 11 11
7 7 9 14 15 16 16 16 16 16 17 18 18 19 19 18 18 18 18 17 17 17 16 16 15 14 13 12 12 12 12 11 8 5 3 2 7 10 11 10 10 10 10
5 6 6 9 11 13 14 15 16 16 16 17 17 18 18 18 18 18 18 18 17 16 16 16 15 14 13 12 11 11 11 10 5 3 3 2 8 9 10 9 9 9 8
4 5 5 6 8 9 10 13 14 14 15 16 16 15 16 17 17 17 16 17 17 16 16 15 15 14 13 11 10 10 10 9 4 3 2 3 8 9 9 8 7 7 7
3 4 5 6 6 7 7 10 11 13 13 14 13 14 13 9 10 11 13 15 17 16 16 15 15 14 11 9 9 9 8 3 4 2 2 5 8 8 7 7 6 6 6
6 6 6 7 6 6 6 6 6 7 8 8 7 9 7 7 7 9 13 15 16 15 15 15 14 13 8 3 5 6 3 3 3 2 3 8 8 7 7 6 6 5 5
7 7 7 8 7 6 5 5 4 4 5 6 8 8 7 6 6 6 6 8 9 10 7 9 8 4 4 3 3 3 3 3 2 2 3 7 7 7 7 6 5 4 3
8 8 8 8 8 7 6 5 5 5 5 5 7 9 7 5 5 6 5 6 6 5 5 5 4 4 4 4 4 4 4 3 2 2 3 6 6 7 7 6 5 4 3
9 9 9 9 9 8 6 5 6 6 6 6 7 8 9 7 7 7 6 6 6 5 6 6 5 5 5 4 4 4 4 4 4 3 2 6 6 6 7 7 6 5 4
9 9 9 10 10 9 7 6 6 6 6 7 7 9 10 8 8 7 8 7 7 7 6 6 6 6 4 4 4 4 4 4 4 4 3 4 6 6 7 7 6 5 4
10 9 9 10 10 10 9 8 6 6 7 7 7 9 10 10 10 8 8 8 7 7 7 6 6 5 4 4 4 4 4 4 5 4 4 3 3 5 7 7 6 5 5
8 9 9 8 9 10 9 7 6 6 7 7 7 8 11 11 11 9 7 8 8 7 7 7 6 5 4 4 3 3 3 3 5 5 4 3 3 2 5 7 7 7 6
8 9 9 8 10 10 8 7 7 7 7 7 7 8 10 12 12 10 8 7 9 8 7 7 6 5 5 4 4 3 2 3 4 4 4 4 4 4 3 5 7 7 7
8 8 8 8 9 8 7 5 5 6 6 6 7 9 11 10 12 11 8 9 9 8 7 7 7 5 5 5 4 2 2 2 3 4 5 4 4 5 4 4 3 4 7
7 7 7 7 8 7 6 6 7 7 6 6 7 10 12 11 12 11 9 9 9 9 9 10 7 7 4 4 3 1 1 2 3 3 3 3 4 4 4 4 3 3 3
7 8 8 8 8 8 7 7 6 6 5 6 7 9 11 12 12 11 11 10 10 9 10 9 8 6 4 5 5 4 0 2 3 3 3 4 5 3 4 5 4 4 3
6 7 8 9 9 8 7 5 3 3 3 4 6 7 10 11 11 11 13 10 10 10 10 10 10 9 7 4 4 5 5 5 2 2 3 4 4 4 4 4 5 5 4
7 6 7 8 8 7 7 7 8 7 7 7 7 7 8 10 11 11 12 12 11 9 10 11 9 7 9 7 4 3 3 4 4 1 2 2 3 4 5 4 4 4 4
5 5 5 7 7 7 7 9 9 7 6 4 5 7 8 8 10 11 12 12 12 10 11 11 9 9 7 7 6 4 3 1 2 3 2 2 2 3 4 4 4 3 4
3 3 3 5 6 6 7 8 8 9 7 7 7 8 7 6 8 11 10 11 12 10 11 11 10 11 9 8 6 5 4 4 4 4 4 3 3 3 2 3 4 4 4
Wind_Direction
182 173 175 170 164 160 157 154 151 149 145 142 140 138 135 134 133 132 131 129 127 125 121 119 116 114 111 109 107 104 101 98 95 93 93 95 95 95 92 86 82 75 81
163 168 171 169 166 163 160 158 154 151 149 147 145 143 141 139 137 136 135 133 131 128 125 123 120 117 115 113 111 109 104 100 99 96 92 92 98 97 95 93 89 85 83
156 166 169 169 167 166 164 160 157 155 154 152 150 148 146 144 141 140 138 137 135 131 129 126 123 120 118 117 115 111 108 105 103 100 91 71 92 98 95 91 88 84 83
157 165 168 170 169 167 166 164 162 160 158 156 154 152 150 148 146 144 142 141 138 135 132 128 126 123 121 120 118 113 110 110 107 103 83 66 80 100 95 92 90 84 82
157 166 172 173 171 170 169 167 166 164 162 159 157 156 155 153 151 148 145 143 140 137 134 131 129 127 125 124 119 115 112 111 110 100 84 72 71 99 95 91 89 85 84
158 168 173 175 175 173 171 171 168 168 167 163 162 160 160 158 154 151 148 146 143 140 138 136 134 132 130 128 122 116 114 112 107 97 88 81 82 100 98 96 91 89 87
156 169 174 177 178 177 175 174 173 171 171 168 167 165 164 162 158 154 152 149 147 146 143 141 139 138 135 132 126 120 116 117 111 104 97 89 100 105 104 102 95 92 90
159 166 175 178 180 180 178 176 175 174 173 173 172 170 168 165 162 159 156 153 152 151 148 147 144 143 141 138 131 124 118 118 115 111 105 108 118 112 108 104 99 95 91
166 165 179 179 179 181 182 179 179 177 176 175 175 175 171 167 165 163 159 158 157 155 153 151 150 148 146 143 136 126 120 119 117 121 121 122 123 118 112 107 104 99 93
172 168 182 184 181 179 180 182 181 180 179 179 178 175 172 170 168 165 162 161 160 159 157 156 155 153 150 147 138 126 121 118 118 119 118 135 128 122 118 114 110 104 98
198 188 186 182 185 182 181 183 179 181 182 180 178 172 169 171 167 165 163 162 163 162 160 160 159 156 151 149 141 130 118 116 126 128 146 148 141 135 127 122 118 113 105
213 207 192 184 183 184 190 180 177 181 179 179 174 169 166 162 164 162 163 164 165 163 163 164 163 157 144 135 137 127 115 130 134 150 171 158 153 148 144 140 132 127 119
212 215 203 191 184 183 185 184 178 176 175 176 172 167 163 160 160 158 158 163 163 160 160 164 160 144 142 145 140 135 141 141 154 171 178 166 164 164 161 158 151 147 142
214 218 214 197 187 187 184 186 182 179 177 179 177 170 166 165 164 164 163 160 159 158 156 154 149 151 155 160 157 152 154 156 170 178 192 176 178 178 175 171 167 166 163
220 217 217 202 189 185 182 187 187 185 183 184 180 177 173 171 171 171 167 165 164 160 161 159 159 162 166 171 171 164 165 173 176 181 191 183 183 190 188 184 185 186 187
223 217 215 203 192 184 186 191 188 188 186 185 184 183 179 176 172 175 172 169 170 167 166 166 167 167 170 171 178 176 171 176 182 183 192 194 194 199 203 203 202 204 210
224 220 217 205 192 188 188 191 191 191 190 189 186 185 184 180 175 177 178 174 174 169 164 162 163 159 165 171 178 181 172 178 183 188 191 196 207 213 215 214 212 217 226
220 221 216 211 195 192 190 191 192 193 194 194 187 186 187 185 178 176 182 180 173 167 164 164 165 162 168 170 173 183 177 176 186 192 194 197 203 215 224 224 224 226 234
220 215 215 210 196 193 190 191 193 193 198 196 190 187 188 188 182 176 183 185 173 169 168 170 168 163 166 171 174 177 182 183 189 194 199 204 207 206 213 227 229 230 235
221 209 217 210 195 191 188 188 190 193 198 198 194 190 186 187 184 178 179 185 175 169 170 169 164 163 162 166 164 164 198 203 194 200 207 209 210 209 207 214 221 236 238
219 206 215 211 198 187 185 186 190 196 196 198 199 192 187 187 184 181 178 179 178 176 174 168 159 162 159 148 125 111 326 262 225 217 208 205 214 213 205 209 209 215 237
220 208 210 207 197 196 196 194 195 193 195 198 197 191 188 188 188 185 180 180 181 174 172 170 159 158 162 162 147 137 200 307 272 231 212 211 218 211 212 213 207 208 212
222 217 217 206 199 199 198 189 186 183 179 195 199 194 191 189 191 188 183 178 183 176 176 175 171 166 169 177 164 154 164 210 249 272 229 220 215 212 219 215 212 211 208
227 225 212 205 201 200 196 189 188 195 200 205 200 195 189 189 189 189 185 181 182 181 176 178 177 170 166 175 182 187 171 156 160 237 283 244 222 221 222 220 213 210 205
234 219 216 209 206 199 200 195 196 202 202 195 193 190 190 190 188 187 189 183 179 184 181 178 175 175 175 176 175 168 172 169 157 162 230 260 261 239 224 217 209 208 206
249 229 223 213 211 205 205 203 202 202 195 188 196 193 191 194 192 191 190 186 181 184 184 183 181 180 183 181 179 174 168 168 182 176 202 222 234 253 233 217 212 211 207